Home   Weather   Lincoln   Past weeks
Flag for USA

Past Weather in Lincoln, Nebraska, USA — Yesterday and Last 2 Weeks

Now
72 °F

Sunny.


Feels Like: 77 °F
Forecast: 76 / 53 °F
Wind: 35 mph from South

Location: Lincoln Municipal Airport

Current Time: Oct 18, 2019 at 12:41:09 pm

Latest Report: Oct 18, 2019 at 11:54 am


Visibility: 10 mi

Pressure: 29.50 "Hg

Humidity: 40%

Dew Point: 46 °F

Location of LincolnLocation

Past Weather in Lincoln — Graph

°F

Lincoln Temperature Yesterday

Maximum temperature yesterday: 71 °F (at 3:54 pm)
Minimum temperature yesterday: 39 °F (at 4:54 am)
Average temperature yesterday: 54 °F

High & Low Weather Summary for the Past Weeks

 TemperatureHumidityPressure
High76 °F (Oct 14, 3:54 pm)96% (Oct 10, 6:15 am)30.40 "Hg (Oct 10, 6:15 am)
Low27 °F (Oct 13, 5:54 am)17% (Oct 13, 4:54 pm)29.54 "Hg (Oct 18, 10:54 am)
Average52 °F66%30.01 "Hg
* Reported Oct 3 10:54 am — Oct 18 10:54 am, Lincoln. Weather by CustomWeather, © 2019

Note: Actual official high and low records may vary slightly from our data, if they occured in-between our weather recording intervals... More about our weather records

Advertising

Lincoln Weather History for the Previous 24 Hours

Scroll right to see more
 ConditionsComfort  
Time TempWeatherWind HumidityBarometerVisibility
10:54 am
Fri, Oct 18
66 °FSunny.24 mph45%29.54 "Hg10 mi
9:54 am61 °FSunny.25 mph50%29.57 "Hg10 mi
8:54 am56 °FSunny.21 mph60%29.61 "Hg10 mi
7:54 am54 °FSunny.20 mph64%29.61 "Hg10 mi
6:54 am54 °FClear.20 mph67%29.62 "Hg10 mi
5:54 am53 °FClear.15 mph69%29.64 "Hg10 mi
4:54 am54 °FClear.13 mph69%29.66 "Hg10 mi
3:54 am54 °FClear.13 mph69%29.68 "Hg10 mi
2:54 am54 °FClear.10 mph69%29.70 "Hg10 mi
1:54 am55 °FClear.12 mph67%29.72 "Hg10 mi
12:54 am55 °FClear.12 mph69%29.72 "Hg10 mi
11:54 pm
Thu, Oct 17
55 °FClear.9 mph69%29.75 "Hg10 mi
10:54 pm56 °FClear.10 mph67%29.75 "Hg10 mi
9:54 pm59 °FClear.15 mph60%29.75 "Hg10 mi
8:54 pm61 °FClear.12 mph56%29.76 "Hg10 mi
7:54 pm62 °FClear.9 mph52%29.77 "Hg10 mi
6:54 pm65 °FClear.12 mph47%29.76 "Hg10 mi
5:54 pm68 °FSunny.10 mph44%29.77 "Hg10 mi
4:54 pm70 °FSunny.13 mph39%29.78 "Hg10 mi
3:54 pm71 °FSunny.13 mph36%29.79 "Hg10 mi
2:54 pm70 °FSunny.15 mph37%29.80 "Hg10 mi
1:54 pm67 °FSunny.13 mph41%29.84 "Hg10 mi
12:54 pm63 °FSunny.9 mph45%29.88 "Hg10 mi
Weather by CustomWeather, © 2019

See weather overview